CAPE
0 0 0 0 0 0 0 0 0 0 0 0 0 0 361 288 246 184 147 275 369 512 565 505 502 487 377 268 184 434 412 556 469 496 681 566 446 400 625 441 477 503 952 1158
0 0 0 0 0 0 0 0 0 0 0 0 0 0 250 272 317 259 168 124 145 112 85 133 296 502 423 132 119 333 516 505 544 519 698 685 527 497 501 718 392 831 979 1173
0 0 0 0 0 0 0 0 0 0 0 0 0 0 37 291 374 359 298 209 141 115 89 1 195 404 409 116 213 389 498 365 479 463 390 528 422 614 687 602 707 932 828 1136
0 0 0 0 0 0 0 0 0 0 0 0 0 0 0 38 215 234 251 230 197 128 113 69 93 317 326 144 277 389 471 466 346 300 508 547 495 533 613 792 752 631 783 1036
0 0 0 0 0 0 0 0 0 0 0 0 0 0 0 0 0 4 32 70 90 103 106 78 11 150 280 210 262 390 373 522 503 493 575 586 519 501 371 493 820 756 753 903
0 0 0 0 0 0 0 0 0 0 0 0 0 0 0 0 0 0 0 17 24 21 40 35 13 29 171 246 143 404 280 583 607 576 674 692 644 514 383 266 562 553 687 779
0 0 0 0 0 0 0 0 0 0 0 0 0 0 0 0 0 0 0 0 3 1 6 2 2 22 71 195 190 365 285 621 781 742 766 752 661 490 465 296 379 526 622 518
0 0 0 0 0 0 0 0 0 0 0 0 0 0 0 0 0 0 0 0 0 0 0 0 0 0 17 87 146 299 333 540 897 958 870 799 697 615 528 271 235 502 708 734
0 0 0 0 0 0 0 0 0 0 0 0 0 0 0 0 0 0 0 0 0 0 0 0 1 0 1 11 108 309 431 481 872 986 961 872 780 717 596 279 198 428 649 735
0 0 0 0 0 0 0 0 0 0 0 0 0 0 0 0 0 0 0 0 0 0 0 1 0 0 0 8 61 218 461 542 734 977 1024 978 881 793 693 555 332 392 404 471
0 0 0 0 0 0 0 0 0 0 0 0 0 0 0 0 0 0 0 0 0 0 0 0 3 0 0 15 24 239 522 557 709 890 923 1015 1057 1022 1008 888 670 385 165 58
0 0 0 0 0 0 0 0 0 0 0 0 0 0 0 0 0 0 0 0 0 0 0 0 0 0 1 14 37 314 573 640 614 970 948 847 839 826 990 1283 1062 636 233 117
0 0 0 0 0 0 0 0 0 0 0 0 0 0 0 0 0 0 0 0 0 0 0 0 0 0 0 19 22 324 654 796 714 825 1094 1104 1063 1101 943 987 1260 1164 730 188
0 0 0 0 0 0 0 0 0 0 0 0 0 0 0 0 0 0 0 0 0 0 0 0 0 0 0 1 107 282 821 928 867 946 1096 1204 1222 1254 1274 1073 911 1276 1338 898
0 0 0 0 0 0 0 0 0 0 0 0 0 0 0 0 0 0 0 0 0 0 0 0 0 0 0 0 101 233 685 1181 1104 1145 1312 1300 1403 1404 1491 1442 1264 1098 1284 1334
0 0 0 0 0 0 0 0 0 0 0 0 0 0 0 0 0 0 0 0 0 0 0 0 0 0 0 0 79 256 651 1357 1411 1395 1570 1582 1623 1733 1793 1808 1735 1466 1329 1364
0 0 0 0 0 0 0 0 0 0 0 0 0 0 0 0 0 0 0 0 0 0 0 0 0 0 1 1 144 312 554 1015 1703 1716 1764 1778 1735 1813 1924 2087 2106 1869 1561 1440
0 0 0 0 0 0 0 0 0 0 0 0 0 0 0 0 0 0 0 0 0 0 0 0 0 0 0 27 204 394 610 961 1693 1897 1974 2097 1999 1949 1969 2042 2232 2268 1951 1676
0 0 0 0 0 0 0 0 0 0 0 0 0 0 0 0 0 0 0 0 0 0 0 0 0 0 0 40 255 504 653 920 1647 1904 2107 2229 2328 2304 2248 2203 2248 2350 2378 1954
0 0 0 0 0 0 0 0 0 0 0 0 0 0 0 0 0 0 0 0 0 0 0 0 0 0 4 135 429 693 729 982 1570 1976 2101 2281 2385 2441 2454 2430 2383 2383 2483 2419
0 4 0 0 0 0 0 0 0 0 0 0 0 0 0 0 0 0 0 0 0 0 0 0 0 25 134 157 431 766 897 1013 1209 1673 2117 2244 2426 2470 2435 2506 2513 2522 2537 2493
23 69 0 0 10 0 0 4 35 0 0 0 0 0 0 0 0 0 0 0 0 2 380 0 0 0 0 293 214 411 656 927 1171 1321 1491 2054 2133 2426 2427 2423 2594 2618 2635 2611
23 45 1 13 0 0 0 5 0 7 9 83 0 137 269 663 833 851 1132 1684 2112 2238 2357 2228 1604 1297 1547 2 475 261 307 546 681 840 1097 1199 1662 2110 2354 2449 2669 2758 2626 2599
39 84 58 170 111 0 59 0 0 0 18 14 365 731 1251 1532 1627 1790 1849 2045 2311 2297 2494 2561 2516 2292 1906 1978 1706 1028 1053 445 448 569 747 1032 1168 1716 2202 2511 2677 2754 2574 2434
7 72 38 133 68 0 103 0 0 1 0 4 1 0 239 1176 1214 1485 1638 1869 1983 2084 2094 1999 2306 2215 2041 1783 1508 1442 1760 1364 750 948 838 1229 1428 1508 929 0 1562 2657 1008 1830
15 130 47 46 21 0 0 0 0 0 0 0 0 0 0 0 18 407 610 881 1231 1340 1369 1550 1527 1611 1785 1558 1494 1320 987 1001 1758 1357 600 239 7 1 1 0 0 1 1 25
CIN
0 0 0 0 0 0 0 0 0 0 0 0 0 0 -217 -241 -247 -291 -283 -277 -230 -213 -246 -240 -231 -231 -227 -231 -246 -213 -202 -205 -215 -217 -157 -163 -167 -195 -164 -196 -165 -173 -154 -127
0 0 0 0 0 0 0 0 0 0 0 0 0 0 -178 -222 -317 -343 -328 -304 -269 -293 -314 -317 -247 -215 -266 -337 -308 -256 -234 -233 -240 -218 -152 -143 -185 -188 -162 -155 -194 -141 -141 -123
0 0 0 0 0 0 0 0 0 0 0 0 0 0 -244 -203 -226 -261 -272 -283 -274 -264 -320 -91 -300 -281 -289 -398 -367 -327 -298 -291 -256 -238 -250 -236 -258 -194 -160 -164 -130 -134 -150 -127
0 0 0 0 0 0 0 0 0 0 0 0 0 0 0 -88 -251 -277 -284 -294 -297 -284 -289 -361 -409 -331 -358 -414 -385 -344 -312 -287 -291 -306 -232 -187 -180 -153 -172 -128 -123 -169 -158 -149
0 0 0 0 0 0 0 0 0 0 0 0 0 0 0 0 0 -247 -341 -351 -328 -346 -345 -359 -436 -387 -395 -370 -420 -388 -384 -301 -285 -305 -219 -215 -195 -196 -254 -229 -131 -148 -180 -153
0 0 0 0 0 0 0 0 0 0 0 0 0 0 0 0 0 0 0 -406 -402 -384 -376 -380 -452 -486 -420 -358 -433 -421 -452 -344 -315 -319 -267 -251 -218 -235 -275 -320 -217 -232 -222 -195
0 0 0 0 0 0 0 0 0 0 0 0 0 0 0 0 0 0 0 0 -166 -55 -387 -177 -155 -510 -501 -460 -467 -456 -510 -408 -347 -330 -291 -274 -254 -279 -274 -313 -288 -258 -241 -279
0 0 0 0 0 0 0 0 0 0 0 0 0 0 0 0 0 0 0 0 0 0 0 0 0 0 -545 -523 -485 -470 -534 -458 -370 -334 -314 -299 -287 -291 -281 -347 -352 -278 -254 -230
0 0 0 0 0 0 0 0 0 0 0 0 0 0 0 0 0 0 0 0 0 0 0 0 -142 0 -108 -551 -579 -548 -542 -508 -426 -360 -322 -312 -319 -303 -333 -406 -392 -327 -277 -245
0 0 0 0 0 0 0 0 0 0 0 0 0 0 0 0 0 0 0 0 0 0 0 -189 0 0 -40 -549 -568 -569 -542 -538 -533 -430 -361 -335 -341 -336 -333 -359 -406 -386 -392 -348
0 0 0 0 0 0 0 0 0 0 0 0 0 0 0 0 0 0 0 0 0 0 0 0 -460 -31 -126 -506 -587 -621 -573 -552 -515 -492 -425 -359 -330 -312 -288 -306 -358 -421 -482 -556
0 0 0 0 0 0 0 0 0 0 0 0 0 0 0 0 0 0 0 0 0 0 0 0 0 -2 -393 -524 -588 -627 -611 -604 -579 -519 -471 -448 -402 -377 -316 -260 -333 -394 -486 -530
0 0 0 0 0 0 0 0 0 0 0 0 0 0 0 0 0 0 0 0 0 0 0 0 0 0 0 -518 -562 -621 -634 -615 -576 -559 -479 -439 -403 -385 -398 -337 -321 -355 -406 -546
0 0 0 0 0 0 0 0 0 0 0 0 0 0 0 0 0 0 0 0 0 0 0 0 0 0 0 -138 -554 -632 -642 -631 -579 -586 -523 -474 -440 -419 -416 -390 -404 -375 -366 -434
0 0 0 0 0 0 0 0 0 0 0 0 0 0 0 0 0 0 0 0 0 0 0 0 0 0 0 0 -604 -638 -644 -616 -611 -576 -549 -529 -470 -427 -401 -376 -408 -428 -405 -390
0 0 0 0 0 0 0 0 0 0 0 0 0 0 0 0 0 0 0 0 0 0 0 0 0 0 0 0 -585 -601 -670 -644 -595 -579 -591 -549 -473 -434 -398 -356 -345 -402 -434 -401
0 0 0 0 0 0 0 0 0 0 0 0 0 0 0 0 0 0 0 0 0 0 0 0 0 0 -77 -145 -545 -605 -656 -670 -608 -589 -575 -553 -522 -471 -435 -342 -300 -354 -423 -419
0 0 0 0 0 0 0 0 0 0 0 0 0 0 0 0 0 0 0 0 0 0 0 0 0 0 0 -479 -525 -569 -640 -668 -650 -612 -566 -517 -516 -527 -458 -388 -330 -309 -351 -412
0 0 0 0 0 0 0 0 0 0 0 0 0 0 0 0 0 0 0 0 0 0 0 0 0 0 0 -526 -540 -597 -662 -679 -625 -597 -580 -564 -496 -466 -426 -413 -404 -318 -251 -315
0 0 0 0 0 0 0 0 0 0 0 0 0 0 0 0 0 0 0 0 0 0 0 0 0 0 -130 -616 -682 -639 -702 -661 -648 -637 -621 -597 -549 -465 -437 -449 -404 -369 -291 -269
0 0 0 0 0 0 0 0 0 0 0 0 0 0 0 0 0 0 0 0 0 0 0 0 0 -323 -541 -606 -613 -598 -631 -639 -644 -630 -593 -594 -542 -512 -494 -432 -337 -310 -272 -216
-35 -10 -1 0 -2 0 0 -205 -290 0 0 0 0 0 0 0 0 0 0 0 0 -256 -446 0 0 0 0 -716 -648 -596 -619 -588 -585 -602 -599 -587 -599 -550 -478 -411 -337 -259 -227 -192
-17 -30 0 -5 0 0 -57 -364 0 -356 -501 -539 0 -559 -513 -625 -606 -629 -591 -578 -595 -577 -591 -659 -660 -626 -710 -51 -685 -627 -651 -613 -619 -644 -641 -654 -656 -545 -463 -424 -378 -270 -261 -225
-48 -68 -51 -31 -70 0 -367 0 0 0 -623 -732 -692 -567 -452 -501 -513 -508 -519 -505 -508 -525 -521 -532 -555 -589 -657 -647 -720 -862 -805 -757 -713 -699 -661 -709 -718 -601 -480 -422 -316 -219 -144 -114
-1 -43 -70 -54 -140 0 -289 0 0 -1 0 -439 -276 0 -373 -502 -505 -475 -460 -451 -474 -494 -522 -550 -485 -493 -522 -579 -653 -672 -602 -679 -675 -623 -647 -639 -577 -494 -536 0 -125 -158 -187 -197
0 -6 -23 -45 -84 0 0 0 0 0 0 0 0 0 0 0 -864 -627 -600 -543 -477 -483 -515 -513 -533 -515 -463 -528 -537 -572 -661 -662 -454 -492 -767 -177 -1094 0 0 0 0 0 -166 -270
Wind_Speed
6 5 12 11 6 6 4 3 5 3 1 2 4 7 21 22 18 21 20 20 21 23 23 21 19 19 17 15 16 16 15 14 11 6 6 3 4 4 3 4 6 6 5 6
3 15 9 9 9 10 6 7 14 3 7 4 6 10 19 24 27 28 25 22 22 20 16 19 19 20 19 19 18 17 17 16 13 10 9 5 4 3 3 4 5 6 7 8
13 6 10 9 7 8 7 11 11 9 2 3 5 2 12 20 12 13 18 21 21 22 23 18 22 22 19 20 21 20 19 18 15 14 6 2 3 2 2 2 3 5 7 7
7 9 9 7 8 9 9 7 7 5 4 4 6 5 7 17 18 16 16 18 20 21 20 18 20 22 22 21 18 19 19 18 15 14 12 14 7 6 4 4 4 4 6 8
11 14 17 13 19 9 11 6 6 3 4 1 5 1 7 17 19 21 20 22 22 22 21 22 22 23 24 21 19 18 19 18 17 15 16 12 9 7 3 3 6 5 5 7
17 5 15 12 9 14 4 3 4 1 3 6 16 8 8 13 25 24 20 23 25 23 23 23 24 20 19 18 18 18 19 18 17 17 18 17 16 10 6 4 5 4 4 5
7 20 5 7 9 6 6 8 4 3 4 10 9 6 15 10 21 26 25 26 27 25 24 23 22 20 19 20 21 18 19 19 19 19 18 17 16 15 13 10 6 6 4 3
8 5 18 8 11 12 9 14 9 7 4 6 4 11 10 15 11 19 25 26 25 24 23 25 25 23 22 23 22 21 21 20 19 19 19 16 16 11 10 9 6 6 6 7
12 12 5 14 8 17 7 12 13 3 2 3 6 9 5 9 10 10 14 14 22 24 25 26 25 22 22 22 24 24 22 22 20 21 17 16 14 14 11 10 9 7 7 7
7 2 8 9 8 9 15 9 4 2 11 13 5 8 8 11 17 11 13 13 20 23 23 24 23 23 20 20 20 21 22 24 22 22 18 16 16 15 12 10 11 9 8 9
1 4 4 7 9 21 5 8 3 7 7 7 3 12 8 10 13 13 15 17 21 23 24 24 22 20 23 21 20 22 21 21 20 19 18 17 15 14 12 12 11 12 10 10
7 3 15 18 6 15 15 11 9 7 13 8 13 12 2 18 14 11 11 13 18 22 22 19 21 20 19 20 19 21 21 21 21 20 19 19 17 14 14 14 12 12 13 11
9 5 1 7 3 4 11 12 17 15 2 20 10 7 7 9 7 10 11 12 12 16 14 16 18 16 17 18 19 20 21 23 20 19 19 18 18 16 17 17 15 13 14 13
3 3 4 8 5 2 8 9 17 17 12 16 18 5 3 6 11 11 9 10 12 14 16 18 16 17 17 20 20 20 21 21 21 20 20 20 19 19 17 17 16 15 15 14
5 3 4 7 15 16 15 14 26 21 22 17 14 14 13 10 11 11 10 7 5 8 15 17 18 16 14 16 17 17 17 17 19 20 20 22 19 18 17 17 16 15 15 15
4 4 5 6 11 13 17 18 25 30 23 13 11 8 10 15 8 7 11 10 10 11 15 16 17 17 20 21 21 21 19 20 20 21 23 20 19 18 18 17 16 15 15 15
2 2 5 5 10 12 12 28 21 16 17 19 20 9 9 8 10 13 13 10 11 13 17 14 15 15 14 18 20 22 23 20 21 22 20 20 19 19 18 16 15 16 17 15
5 4 3 6 6 9 13 9 16 20 12 8 5 12 12 16 15 13 13 11 12 11 10 10 8 8 15 18 18 18 16 18 20 21 19 18 20 20 18 17 18 17 15 17
20 7 3 4 4 11 16 9 4 10 11 7 16 11 8 11 4 5 6 8 9 11 11 10 10 9 9 14 14 13 13 17 18 18 19 19 19 19 18 19 20 16 15 14
20 18 7 4 5 8 2 13 20 15 18 18 13 12 11 8 7 11 7 7 8 6 5 7 8 4 7 8 14 15 14 16 18 19 21 20 20 19 20 21 20 18 17 17
10 9 12 10 6 10 6 21 10 7 13 6 10 12 10 8 9 8 7 4 7 5 5 3 5 10 12 9 11 17 17 20 23 21 20 18 19 20 21 18 15 16 16 14
9 10 10 10 9 11 10 10 9 12 22 14 8 8 9 7 8 8 7 5 4 7 6 5 6 8 7 7 9 12 16 21 19 18 17 18 19 16 15 18 15 15 15 15
11 7 11 8 8 3 1 4 13 16 16 15 11 4 14 11 5 6 6 6 7 7 5 4 5 6 6 2 7 12 17 14 14 12 15 17 17 17 16 17 17 14 17 15
9 5 6 7 4 4 6 11 14 18 8 10 11 7 9 13 7 8 7 6 7 6 7 6 8 10 10 8 6 5 7 4 5 11 13 11 13 14 15 12 12 13 12 11
13 7 11 6 3 4 9 12 17 15 8 14 17 17 13 10 10 9 8 8 7 8 8 9 11 10 9 7 9 10 9 2 4 4 3 2 4 6 6 7 4 8 3 10
8 11 12 6 5 5 8 10 17 9 9 11 16 19 17 15 12 9 11 7 7 9 7 10 9 10 8 7 8 10 12 13 11 10 8 7 7 8 9 10 11 15 16 17
Wind_Direction
188 170 204 204 178 197 190 230 248 133 207 75 264 177 176 176 185 187 188 185 192 204 200 196 195 192 189 189 190 191 195 194 182 178 184 188 206 184 193 201 204 198 191 189
187 220 193 192 185 207 190 226 259 300 213 191 221 203 187 179 195 192 188 190 194 195 186 200 197 195 190 190 191 193 196 193 187 187 193 190 180 203 171 181 190 192 184 197
207 223 169 178 185 190 198 201 241 241 16 220 118 1 179 205 221 199 204 200 200 195 191 182 194 199 198 195 193 193 194 194 193 185 173 110 95 77 129 169 182 199 194 197
223 230 200 192 211 180 239 194 247 256 58 237 124 243 195 199 212 210 204 206 207 206 207 199 193 195 198 199 195 194 193 195 194 183 186 199 188 188 194 186 199 194 196 189
217 185 202 214 218 172 243 183 196 199 203 158 222 122 248 175 209 216 207 208 210 209 204 205 200 202 202 194 191 191 190 194 191 189 194 196 198 201 176 168 185 200 201 192
214 200 198 205 197 203 178 309 28 38 138 238 247 168 245 195 202 211 211 210 209 206 209 209 213 200 201 198 191 189 188 197 192 192 195 196 198 192 188 180 198 195 191 190
186 225 229 153 196 186 132 107 272 283 198 231 220 193 229 204 208 210 204 211 209 204 205 210 210 202 196 196 194 190 190 195 193 194 196 196 199 196 199 194 197 174 177 175
176 219 208 197 186 197 194 185 161 198 207 233 153 232 233 215 225 215 217 211 208 203 203 207 208 204 199 195 194 190 190 194 191 193 198 198 199 198 200 197 192 195 189 197
185 233 228 199 188 173 193 196 192 134 184 15 226 277 304 211 235 237 214 202 208 205 201 206 209 206 201 196 194 193 191 195 192 195 197 197 197 199 194 194 196 189 189 193
213 234 216 201 170 216 187 172 158 355 219 239 253 249 220 193 216 224 230 201 211 208 203 208 207 205 201 200 199 195 195 194 191 192 195 196 198 200 193 189 194 189 189 192
4 173 238 128 187 198 179 199 201 158 159 212 211 252 182 205 211 211 218 210 210 204 205 205 209 203 202 197 190 196 194 195 196 193 195 198 200 199 193 195 196 192 184 189
332 282 241 225 224 200 205 197 159 157 222 246 233 233 331 191 202 204 217 211 219 215 214 203 204 204 199 196 190 192 193 194 198 194 192 198 197 194 195 203 199 192 193 191
342 305 297 336 313 292 209 204 203 219 118 222 215 255 213 174 206 203 211 233 234 224 206 199 208 198 193 192 193 191 193 197 195 195 195 198 198 194 198 205 199 196 195 192
62 301 241 258 277 307 212 226 208 202 224 227 227 226 229 204 209 233 215 226 210 195 192 193 200 202 191 192 194 193 196 193 193 193 197 198 199 198 200 204 204 196 199 193
86 250 283 299 299 285 262 245 222 216 218 215 226 203 232 208 201 212 225 228 222 209 194 199 199 186 186 186 192 195 195 196 193 193 196 203 199 200 201 204 205 204 199 200
6 281 341 290 265 260 261 251 245 222 219 229 223 217 213 222 225 228 222 225 204 211 207 195 195 191 195 188 189 190 191 193 191 195 202 196 199 199 201 202 202 200 202 203
300 200 3 275 316 323 269 235 246 249 215 204 222 196 190 240 205 224 231 222 210 214 212 198 193 200 198 196 196 191 189 184 191 199 200 197 198 202 202 197 198 202 201 194
218 174 158 267 306 224 267 198 231 237 245 207 136 189 192 209 222 216 211 204 215 218 195 203 208 206 200 202 195 195 186 188 193 196 196 199 199 201 198 196 204 205 200 200
209 202 220 223 238 292 297 316 209 187 230 209 198 209 203 218 101 244 227 213 224 202 198 195 196 205 204 191 184 180 184 187 189 198 200 198 200 202 198 199 203 203 201 200
201 204 207 187 228 240 112 340 332 301 231 199 185 193 188 139 204 240 218 204 218 205 218 196 199 179 165 188 156 161 176 184 197 196 201 199 197 200 201 202 202 199 201 207
169 189 216 245 258 287 320 333 303 167 243 168 180 194 159 181 202 200 156 170 161 142 213 166 165 191 200 161 169 177 177 196 204 200 202 198 200 201 205 201 202 199 198 199
183 165 181 217 213 253 4 359 358 311 302 275 149 173 142 146 139 146 164 152 144 121 106 119 175 201 193 163 172 202 194 206 205 202 200 201 202 198 194 197 195 195 190 196
236 191 169 214 221 208 315 323 304 301 284 294 118 116 133 125 120 119 108 90 68 58 43 48 65 51 41 324 209 190 225 219 203 191 197 199 197 199 200 193 186 189 190 191
273 185 206 178 234 265 29 352 332 318 331 329 45 62 117 112 98 92 81 61 70 55 47 29 44 48 42 29 23 319 327 279 194 201 210 205 193 195 193 190 189 189 195 186
265 231 213 210 229 278 41 2 327 308 6 48 51 56 44 74 70 90 82 71 65 55 46 51 53 47 41 39 43 32 19 355 196 224 256 201 154 146 89 38 269 191 144 157
235 239 208 221 193 104 62 331 304 283 54 53 61 55 45 48 49 49 61 47 50 54 44 49 47 57 36 34 47 52 52 55 62 62 51 57 75 65 82 77 63 19 85 98